Location: Edinburgh
(55.9500°N, 3.1600°W)
Time: 00:50:22
(UTC+01:00)

Envisat - Pass Details

Date: 15 October 2017
Orbit: 764 x 766 km, 98.2° (Epoch: 19 October)

Event Time Altitude Azimuth Distance (km) Brightness Sun altitude
Exits shadow 21:22:36 26° 205° (SSW) 1,489 4.4 -26.9°
Maximum altitude 21:25:05 44° 262° (W) 1,051 4.0 -27.2°
Drops below altitude 10° 21:29:58 10° 335° (NNW) 2,316 6.1 -27.8°
Sets 21:32:24 0° 342° (NNW) 3,247 6.9 -28.1°
